Location: Newark
(38.8667°N, 6.9667°W)
Time: 07:44:02
(UTC+00:00)

Hubble Space Telescope - Pass Details

Date: 29 October 2019
Orbit: 536 x 540 km, 28.5° (Epoch: 20 November)

Event Time Altitude Azimuth Distance (km) Brightness Sun altitude
Rises 06:17:54 0° 231° (SW) 2,667 3.9 -7.1°
Reaches altitude 10° 06:20:50 10° 210° (SSW) 1,777 3.2 -6.6°
Maximum altitude 06:23:24 16° 170° (S) 1,425 3.2 -6.1°
Drops below altitude 10° 06:26:00 10° 131° (SE) 1,777 4.6 -5.6°
Sets 06:28:55 0° 110° (ESE) 2,668 6.9 -5.1°
